Home > Weather > Pago Pago > Past weeks

Flag for American Samoa Weather for the Past 2 Weeks in Pago Pago, American Samoa

Now
80 °F

Passing clouds.


Feels Like: 86 °F
Forecast: 80 / 90 °F
Wind: No wind

Location: Pago Pago / Int. Airp.

Current Time: Feb 9, 2016 at 5:37:38 AM

Latest Report: Feb 9, 2016 at 4:54 AM


Visibility: 10 mi

Pressure: 29.77 "Hg

Humidity: 92%

Dew point: 78 °F

Location of Pago PagoLocation

Historic Weather in Pago Pago — Graph

°F

Pago Pago Temperature Yesterday

Maximum temperature yesterday: 110 °F (at 3:50 PM)
Minimum temperature yesterday: 79 °F (at 5:50 AM)
Average temperature yesterday: 87 °F

High & Low Weather Summary for the Past Weeks

 TemperatureHumidityPressure
High110 °F (Feb 8, 3:50 PM)92% (Jan 25, 4:56 AM)29.93 "Hg (Jan 25, 4:56 AM)
Low78 °F (Jan 25, 4:56 AM)18% (Feb 2, 6:52 PM)29.70 "Hg (Feb 8, 3:50 PM)
Average85 °F79%29.82 "Hg
* Reported Jan 25 3:50 AM — Feb 9 3:51 AM, Pago Pago, Weather by CustomWeather, © 2016

Note: Actual official high and low records may vary slightly from our data, if they occured in-between our weather recording intervals... More about our weather records

Advertising

Pago Pago Weather History for the Previous 24 Hours

 ConditionsComfort  
Time TempWeatherWind HumidityBarometerVisibility
3:51 AM
Tue, Feb 9
81 °FPassing clouds.No wind92%29.76 "Hg10 mi
2:50 AM81 °FPassing clouds.2 mph89%29.77 "Hg10 mi
1:53 AM81 °FPassing clouds.No wind89%29.77 "Hg10 mi
12:50 AM82 °FPassing clouds.No wind88%29.78 "Hg10 mi
11:50 PM
Mon, Feb 8
83 °FPassing clouds.No wind85%29.80 "Hg10 mi
10:50 PM84 °FPassing clouds.6 mph84%29.80 "Hg10 mi
9:50 PM84 °FPassing clouds.3 mph82%29.78 "Hg10 mi
9:00 PM84 °FPassing clouds.2 mph80%29.77 "Hg10 mi
8:50 PM84 °FPassing clouds.2 mph80%29.77 "Hg10 mi
8:00 PM85 °FPassing clouds.3 mph78%29.75 "Hg10 mi
7:51 PM85 °FPassing clouds.3 mph78%29.75 "Hg10 mi
6:51 PM87 °FScattered clouds.3 mph73%29.72 "Hg12 mi
6:00 PM88 °FScattered clouds.6 mph71%29.71 "Hg12 mi
5:50 PM88 °FScattered clouds.6 mph71%29.71 "Hg12 mi
5:00 PM89 °FScattered clouds.8 mph66%29.70 "Hg12 mi
4:55 PM89 °FScattered clouds.8 mph66%29.70 "Hg12 mi
3:50 PM110 °FScattered clouds.9 mph37%29.70 "Hg12 mi
3:00 PM94 °FScattered clouds.8 mph56%29.71 "Hg12 mi
1:50 PM93 °FScattered clouds.13 mph66%29.72 "Hg12 mi
12:50 PM94 °FScattered clouds.10 mph65%29.74 "Hg12 mi
11:52 AM93 °FScattered clouds.12 mph66%29.75 "Hg12 mi
10:50 AM93 °FScattered clouds.13 mph66%29.77 "Hg12 mi
9:50 AM92 °FScattered clouds.12 mph68%29.78 "Hg12 mi
8:51 AM89 °FScattered clouds.9 mph75%29.78 "Hg12 mi
7:50 AM86 °FPassing clouds.8 mph78%29.77 "Hg12 mi
6:50 AM80 °FPassing clouds.No wind88%29.76 "Hg11 mi
5:50 AM79 °FPassing clouds.3 mph89%29.75 "Hg10 mi
Weather by CustomWeather, © 2016

See weather overviewHow to use our weather pages